Walla Walla, WA

10:18 AM PDT on June 28, 2017 (GMT -0700)
Walla Walla Regional

Weather History for KALW - January, 2014

Change the Weather History Date:

Tuesday, January 28, 2014

  Actual Average Record
Temperature  
Mean Temperature 32 °F 37 °F  
Max Temperature 34 °F 43 °F 60 °F (1992)
Min Temperature 30 °F 31 °F -13 °F (1957)
Degree Days  
Heating Degree Days 33 28  
Month to date heating degree days 830  
Since 1 July heating degree days 2968  
Cooling Degree Days 0 0  
Month to date cooling degree days 0  
Year to date cooling degree days 0  
Moisture  
Dew Point 28 °F    
Average Humidity 87    
Maximum Humidity 96    
Minimum Humidity 75    
Precipitation  
Precipitation 0.04 in 0.07 in 0.64 in (1954)
Month to date precipitation 2.32  
Year to date precipitation 2.32  
Snow  
Snow 0.00 in 0.00 in 3.00 in (1956)
Month to date snowfall 1.7  
Year to date snowfall 1.7  
Since 1 July snowfall 7.4  
Snow Depth -    
Sea Level Pressure  
Sea Level Pressure 30.32 in    
Wind  
Wind Speed 3 mph (ESE)    
Max Wind Speed 7 mph    
Max Gust Speed -    
Visibility 8 miles    
Events Rain    
T = Trace of Precipitation, MM = Missing Value Source: NWS Daily Summary

Daily Weather History Graph

Daily Weather History Graph

Search for Another Location

Airport or City:

Trip Planner

Search our weather history database for the weather conditions in past years. The results will help you decide how hot, cold, wet, or windy it might be!

Date:

Astronomy

Jan. 28, 2014 Rise Set
Actual Time 7:20 AM PST 4:52 PM PST
Civil Twilight 6:47 AM PST 5:24 PM PST
Nautical Twilight 6:11 AM PST 6:01 PM PST
Astronomical Twilight 5:36 AM PST 6:36 PM PST
Moon 5:08 AM PST 2:46 PM PST
Length of Visible Light 10h 37m
Length of Day
9h 32m
Waning Crescent, 6% of the Moon is Illuminated
Jan 28
Waning Crescent
Jan 30
New
Feb 6
First Quarter
Feb 14
Full
Feb 22
Last Quarter

Hourly Weather History & Observations

Time (PST) Temp. Windchill Dew Point Humidity Pressure Visibility Wind Dir Wind Speed Gust Speed Precip Events Conditions
12:14 AM 30.0 °F 25.2 °F 28.0 °F 92% 30.40 in 5.0 mi SSE 4.6 mph - N/A   Overcast
12:27 AM 30.0 °F 26.5 °F 28.0 °F 92% 30.40 in 5.0 mi South 3.5 mph - N/A   Overcast
12:53 AM 30.0 °F 25.2 °F 28.0 °F 92% 30.45 in 5.0 mi South 4.6 mph - N/A   Overcast
1:46 AM 30.0 °F 26.5 °F 28.9 °F 96% 30.42 in 4.0 mi SSW 3.5 mph - N/A   Overcast
1:53 AM 30.0 °F 26.5 °F 28.9 °F 96% 30.47 in 4.0 mi South 3.5 mph - N/A   Overcast
2:08 AM 30.0 °F 25.2 °F 28.9 °F 96% 30.43 in 4.0 mi SSW 4.6 mph - N/A   Overcast
2:53 AM 30.0 °F 25.2 °F 28.0 °F 92% 30.46 in 5.0 mi SE 4.6 mph - N/A   Overcast
3:01 AM 30.0 °F 26.5 °F 26.1 °F 85% 30.41 in 7.0 mi SSE 3.5 mph - N/A   Overcast
3:53 AM 30.0 °F - 28.0 °F 92% 30.45 in 6.0 mi Calm Calm - N/A   Overcast
4:53 AM 30.0 °F 26.5 °F 26.1 °F 85% 30.43 in 10.0 mi ESE 3.5 mph - N/A   Overcast
5:53 AM 30.0 °F 26.5 °F 26.1 °F 85% 30.42 in 10.0 mi East 3.5 mph - N/A   Overcast
6:53 AM 30.0 °F - 26.1 °F 85% 30.42 in 10.0 mi Calm Calm - N/A   Overcast
7:53 AM 30.0 °F - 26.1 °F 85% 30.42 in 10.0 mi Calm Calm - N/A   Overcast
8:53 AM 30.0 °F 26.5 °F 25.0 °F 82% 30.41 in 10.0 mi SSE 3.5 mph - N/A   Overcast
9:53 AM 30.9 °F - 25.0 °F 79% 30.41 in 10.0 mi Calm Calm - N/A   Overcast
10:53 AM 30.9 °F - 26.1 °F 82% 30.43 in 10.0 mi Calm Calm - N/A   Overcast
11:53 AM 32.0 °F 28.7 °F 26.1 °F 79% 30.37 in 10.0 mi Variable 3.5 mph - N/A   Mostly Cloudy
12:53 PM 32.0 °F 27.5 °F 28.0 °F 85% 30.36 in 10.0 mi North 4.6 mph - N/A   Overcast
1:53 PM 33.1 °F 27.7 °F 28.0 °F 82% 30.33 in 10.0 mi NE 5.8 mph - N/A   Overcast
2:53 PM 34.0 °F 29.8 °F 27.0 °F 75% 30.29 in 10.0 mi East 4.6 mph - N/A   Mostly Cloudy
3:18 PM 34.0 °F - 28.0 °F 79% 30.25 in 10.0 mi Calm Calm - N/A   Mostly Cloudy
3:50 PM 33.8 °F 28.6 °F 28.4 °F 81% 30.27 in 10.0 mi NW 5.8 mph - N/A   Mostly Cloudy
3:53 PM 34.0 °F 28.0 °F 28.0 °F 79% 30.32 in 10.0 mi NW 6.9 mph - N/A   Mostly Cloudy
4:53 PM 33.1 °F 30.0 °F 28.9 °F 85% 30.31 in 10.0 mi North 3.5 mph - N/A   Overcast
5:53 PM 32.0 °F 27.5 °F 28.9 °F 88% 30.29 in 7.0 mi NW 4.6 mph - N/A   Mostly Cloudy
6:53 PM 32.0 °F - 28.9 °F 88% 30.28 in 8.0 mi Calm Calm - N/A   Overcast
7:53 PM 33.1 °F - 28.9 °F 85% 30.21 in 10.0 mi Calm Calm - N/A   Mostly Cloudy
8:53 PM 32.0 °F 27.5 °F 30.0 °F 92% 30.20 in 6.0 mi NW 4.6 mph - N/A   Overcast
9:05 PM 32.0 °F - 30.0 °F 92% 30.17 in 5.0 mi Calm Calm - 0.00 in   Overcast
9:25 PM 32.0 °F - 30.0 °F 92% 30.15 in 4.0 mi Calm Calm - 0.00 in   Overcast
9:35 PM 32.0 °F - 30.0 °F 92% 30.15 in 5.0 mi Calm Calm - 0.00 in Rain Light Freezing Rain
9:53 PM 32.0 °F - 30.0 °F 92% 30.18 in 5.0 mi Calm Calm - 0.00 in Rain Light Freezing Rain
10:27 PM 32.0 °F - 30.0 °F 92% 30.12 in 5.0 mi Calm Calm - 0.02 in Rain Light Freezing Rain
10:53 PM 32.0 °F 27.5 °F 30.0 °F 92% 30.15 in 5.0 mi NNE 4.6 mph - 0.03 in Rain Light Freezing Rain
11:53 PM 32.0 °F 27.5 °F 28.9 °F 88% 30.11 in 6.0 mi North 4.6 mph - 0.01 in Rain Light Freezing Rain